Location: Brad
(46.1333°N, 22.7833°E)
Time: 06:32:04
(UTC+00:00)

Cosmos 540 Rocket - Visible Passes

Search period start: 11 November 2024 00:00
Search period end: 21 November 2024 00:00
Orbit: 736 x 750 km, 74.1° (Epoch: 10 November)

Date Brightness Start Highest point End Pass type
(mag) Time Alt. Az. Time Alt. Az. Time Alt. Az.
11 Nov 7.0 03:17:51 10° ESE 03:18:47 10° E 03:19:45 10° E visible
12 Nov 4.9 04:10:08 10° S 04:14:56 42° ESE 04:19:46 10° NE visible
12 Nov 7.1 16:16:29 10° W 16:17:30 11° W 16:18:31 10° WSW visible
13 Nov 6.0 03:26:47 10° SSE 03:30:39 22° E 03:34:32 10° NE visible
13 Nov 6.4 15:29:33 10° NW 15:33:23 21° W 15:37:12 10° SW visible
14 Nov 6.8 02:45:13 10° ESE 02:46:31 11° E 02:47:49 10° ENE visible
14 Nov 3.5 04:22:01 10° SSW 04:27:08 84° ESE 04:32:19 10° NNE visible
15 Nov 4.7 03:37:51 10° S 03:42:40 43° ESE 03:47:32 10° NNE visible
15 Nov 7.1 15:44:45 10° W 15:45:13 10° W 15:45:41 10° W visible
16 Nov 5.8 02:54:26 10° SSE 02:58:22 23° E 03:02:20 10° NE visible
16 Nov 3.6 04:34:32 10° SW 04:39:31 50° WNW 04:44:33 10° NNE visible
17 Nov 6.6 02:12:39 10° ESE 02:14:13 11° E 02:15:47 10° ENE visible
17 Nov 3.4 03:49:44 10° SSW 03:54:52 87° ESE 04:00:03 10° NNE visible
18 Nov 4.5 03:05:32 10° S 03:10:23 45° ESE 03:15:17 10° NNE visible
18 Nov 4.3 04:47:43 10° WSW 04:52:05 27° WNW 04:56:29 10° N visible
19 Nov 5.6 02:22:04 10° SSE 02:26:04 23° E 02:30:05 10° NE visible
19 Nov 3.6 04:02:17 10° SW 04:07:14 49° WNW 04:12:15 10° NNE visible
20 Nov 6.4 01:40:07 10° ESE 01:41:54 12° E 01:43:43 10° ENE visible
20 Nov 3.4 03:18:46 18° SSW 03:22:34 89° ESE 03:27:45 10° NNE visible
20 Nov 5.0 05:01:45 10° W 05:04:52 16° NW 05:07:59 10° NNW visible
